sat.trackr.live / text

‹ back to catalog

STARLINK-6293

NORAD 57354 · 2023-099AC

PAYLOAD ACTIVE UNKNOWN

§ Identity

Operator
Country
US
Launch date
2023-07-16
Launch site
AFETR
Launch vehicle
Mass (kg)
RCS (m²)

Purposes: comms

External: N2YO · Heavens-Above · Gunter

§ Orbital elements

Epoch: 2026-05-25T02:14:10.537728Z

Period
94.27 min
Inclination
43.0009°
Eccentricity
0.0001179
Mean motion
15.27578304 rev/d
Perigee alt
482.2 km
Apogee alt
483.9 km
Semi-major
6,861.2 km
B*
5.3410e-5
RAAN
170.2405°
Arg perigee
272.2650°
Mean anomaly
87.8067°
Rev number
15,788

§ Raw data

STARLINK-62931 57354U 23099AC  26145.09317752  .00001208  00000+0  53410-4 0  99962 57354  43.0009 170.2405 0001179 272.2650  87.8067 15.27578304157880

JSON: /api/v1/satellites/57354 · /tle

For live sub-satellite position, see the globe view (requires WebGL).

§ Visibility from observer

Set your observer location to see the next 7 days of passes ≥ 10°. The values pass through the URL so the page stays shareable.

No JS? Fill the form by hand. The geolocation button needs JavaScript.